Location: Colle Santa Colomba
(42.0333°N, 12.5667°E)
Time: 21:35:32
(UTC+00:00)

SL-08 RB Rocket - Pass Details

Date: 25 October 2021
Orbit: 646 x 683 km, 97.8° (Epoch: 05 December)

Event Time Altitude Azimuth Distance (km) Brightness Sun altitude
Rises 17:04:52 0° 141° (SE) 2,986 6.8 -10.3°
Reaches altitude 10° 17:07:15 10° 131° (SE) 2,084 5.9 -10.7°
Maximum altitude 17:11:17 32° 69° (ENE) 1,160 4.4 -11.5°
Drops below altitude 10° 17:15:21 10° 7° (N) 2,118 6.2 -12.2°
Sets 17:17:47 0° 358° (N) 3,042 7.1 -12.7°
